Regional Weather Roundup
Issued by NWS Cleveland, OH

Home | Current Version | Previous Version | Text Only | Print | Product List | Glossary Off
Versions: 1 2 3 4 5 6 7 8 9 10 11 12 13 14 15 16 17 18 19 20 21 22 23 24 25 26 27 28 29 30 31 32 33 34 35 36 37 38 39 40 41 42 43 44 45 46 47 48 49 50

000
ASUS41 KCLE 250810
RWRCLE
OHIO REGIONAL WEATHER ROUNDUP
NATIONAL WEATHER SERVICE WILMINGTON, OH
400 AM EDT MON JUL 25 2016

NOTE: "FAIR" INDICATES FEW OR NO CLOUDS BELOW 12,000 FEET WITH NO
SIGNIFICANT WEATHER AND/OR OBSTRUCTIONS TO VISIBILITY.

OHZ001>008-015>018-024>027-034-035-043-044-250900-
   NORTHWEST OHIO

CITY           SKY/WX    TMP DP  RH WIND       PRES   REMARKS
DEFIANCE       FAIR      79  65  62 VRB6      29.93R
FINDLAY        FAIR      80  73  79 SW5       29.92F
TOLEDO EXPRESS LGT RAIN  76  75  97 W17G33    29.92R
TOLEDO EXEC    CLOUDY    80  77  90 W10       29.93R
LIMA           FAIR      78  76  93 SW7       29.94F
$$

OHZ009>014-019>023-028>033-038-089-250900-
   NORTHEAST OHIO

CITY           SKY/WX    TMP DP  RH WIND       PRES   REMARKS
CLE-HOPKINS    MOCLDY    79  69  71 S8        29.94F
CLE-LAKEFRONT  FAIR      83  71  67 S15G22    29.90F
CUY CO. ARPT   NOT AVBL
LORAIN-ELYRIA  FAIR      75  70  84 SW7       29.93F
ASHTABULA      FAIR      74  72  93 SW8       29.94F
AKRON-CANTON   FAIR      74  69  85 S6        29.97F
WOOSTER        FAIR      71  68  90 CALM      29.98F
MANSFIELD      FAIR      75  73  93 S7        29.97F
YOUNGSTOWN     MOCLDY    73  70  90 S7        29.97F
$$

OHZ042-051>053-060>062-070>072-077>081-250900-
  SOUTHWEST OHIO

CITY           SKY/WX    TMP DP  RH WIND       PRES   REMARKS
CINC-COVINGTON FAIR      78  75  90 SW5       30.01S
CINC-LUNKEN    FAIR      74  74 100 SW3       30.00S FOG
HAMILTON       FAIR      77  74  90 CALM      30.00S
DAYTON         CLOUDY    79  75  87 SW9       29.99F
WRIGHT-PAT AFB FAIR      78  77  97 S8        29.98F
DAYTON GENERAL FAIR      80  74  81 SW6       30.00S
WILMINGTON     MOCLDY    78  75  90 W6        30.01S
$$

OHZ036-037-039>041-045>050-054>059-063>069-073>076-082>088-250900-
  CENTRAL AND SOUTHEAST OHIO

CITY           SKY/WX    TMP DP  RH WIND       PRES   REMARKS
COLUMBUS       FAIR      78  73  84 CALM      29.97F
OSU AIRPORT    FAIR      78  74  87 SW6       29.97F
BOLTON FIELD   FAIR      74  73  97 SW5       29.99F
RICKENBACK AFB FAIR      76  74  95 SW5       29.98S
NEWARK         FAIR      73  71  93 CALM      29.97F
MARION         FAIR      74  72  93 S5        29.96F
LANCASTER      FAIR      77  74  90 SW5       29.99S
ZANESVILLE     FAIR      78  72  81 S6        29.98F
NEW PHILLY     FAIR      75  70  84 SE5       29.98F
$$




USA.gov is the U.S. government's official web portal to all federal, state and local government web resources and services.